Location: Borea
(45.6167°N, 23.0167°E)
Time: 01:09:24
(UTC+00:00)

OPS 8068 - Pass Details

Date: 23 February 2024
Orbit: 631 x 963 km, 98.3° (Epoch: 13 April)

Event Time Altitude Azimuth Distance (km) Brightness Sun altitude
Rises 18:14:23 0° 353° (N) 3,271 ? -23.2°
Reaches altitude 10° 18:18:52 10° 317° (NW) 2,432 ? -24.0°
Maximum altitude 18:19:56 11° 305° (NW) 2,412 ? -24.2°
Drops below altitude 10° 18:21:00 10° 294° (WNW) 2,472 ? -24.3°
Sets 18:25:46 0° 258° (WSW) 3,494 ? -25.2°
